[[{"header":{"parameterUnit":"m.s-1","parameterCategory":1,"la1":30.2991,"la2":30.254,"lo1":-89.0895,"lo2":-89.0444,"dy":0.0017,"dx":0.0017,"nx":28,"ny":28,"refTime":"2025-07-29T21:00:00:Z","depth":0,"parameterNumber":2,"parameterNumberName":"U-component_of_WINDS"},"data":[0,0,0,0,0,0,0,0,0,0,0,0,0,0,0,0,0,0,0,0,0,0,0,0,0,0,0,0,0,0,0,0,0,0,0,0,0,0,0,0,0,0,0,0,0,0,0,0,0,0,0,0,0,0,0,0,0,0,1.6581,1.6581,0,1.6559,1.6558,1.6558,1.6527,1.6526,1.6526,1.6525,1.6502,1.6502,1.6502,0,0,0,0,0,0,0,0,0,0,0,0,0,1.6599,1.6598,1.6581,1.6581,1.6581,1.6559,1.6558,1.6558,1.6527,1.6526,1.6526,1.6525,1.6502,1.6502,1.6502,0,0,0,0,0,0,0,0,0,0,0,0,0,1.6585,1.6598,1.6581,1.6563,1.6561,1.6559,1.6558,1.6558,1.6527,1.6526,1.6526,1.6525,1.6502,1.6502,1.6502,1.6516,0,0,1.6501,1.6501,0,0,0,0,0,0,0,0,1.6586,1.6584,1.6566,1.6564,1.6562,1.6545,1.6556,1.6544,1.6527,1.654,1.6525,1.6524,1.6517,1.6515,1.6513,1.6515,1.6514,1.6501,1.6501,1.6501,1.6501,0,0,0,0,0,0,0,1.6587,1.6585,1.6572,1.6565,1.6563,1.6556,1.6553,1.6553,1.6533,1.6539,1.6536,1.6534,1.6516,1.6513,1.6512,1.6514,1.6501,1.6501,1.6501,1.6501,1.6529,1.6529,0,0,0,0,0,0,1.659,1.6586,1.6573,1.6572,1.6572,1.6556,1.6553,1.6551,1.6533,1.6529,1.6535,1.6533,1.6514,1.6512,1.6511,1.6528,1.6501,1.6501,1.65,1.6528,1.6529,1.653,0,0,0,0,0,0,1.6591,1.659,1.6574,1.6578,1.6576,1.6557,1.6555,1.6551,1.6548,1.653,1.6526,1.6536,1.6513,1.6511,1.6516,1.6527,1.65,1.65,1.6527,1.6528,1.6529,1.6561,0,0,0,0,0,0,1.6592,1.659,1.6595,1.6579,1.6576,1.6579,1.6555,1.6551,1.6548,1.6545,1.653,1.6527,1.6512,1.6516,1.6515,1.6526,1.65,1.6526,1.6527,1.6529,1.6559,1.6564,1.6567,0,0,0,0,0,1.6592,1.6604,1.6595,1.6594,1.6581,1.6579,1.6577,1.6561,1.6549,1.6554,1.6543,1.6527,1.6526,1.6517,1.6516,1.6526,1.6525,1.6527,1.6529,1.6557,1.6563,1.6567,0,0,0,0,0,0,1.6622,1.6602,1.6591,1.6598,1.6591,1.6574,1.658,1.6567,1.6562,1.6559,1.6539,1.6536,1.6543,1.6535,1.6525,1.654,1.6523,1.6525,1.6545,1.655,1.6554,1.6556,1.65,0,0,0,0,0,1.6629,1.6629,1.6611,1.6619,1.6616,1.6599,1.6597,1.6585,1.6576,1.6573,1.6561,1.6554,1.6551,1.655,1.6547,1.6558,1.6555,1.6565,1.6569,1.6573,1.6575,1.6581,1.6586,1.6536,1.6536,1.6536,0,0,1.6644,1.6633,1.6634,1.6625,1.6618,1.6619,1.6596,1.6597,1.6598,1.6573,1.6576,1.6568,1.6558,1.6566,1.6569,1.656,1.6588,1.6575,1.6578,1.6578,1.6584,1.6589,1.6593,1.6538,1.6537,1.6537,0,0,1.6672,1.6663,1.667,1.6663,1.6653,1.6641,1.6643,1.6629,1.6622,1.6626,1.6608,1.6608,1.6604,1.6598,1.6595,1.6623,1.6609,1.6623,1.6644,1.6651,1.6655,1.6658,1.6669,1.6673,1.6625,1.6625,1.6625,0,1.6692,1.6692,1.6674,1.6677,1.6675,1.6653,1.666,1.6654,1.6643,1.6642,1.6632,1.6628,1.662,1.6627,1.6634,1.6632,1.6634,1.6624,1.6655,1.6659,1.6662,1.6672,1.6676,1.6626,1.6626,1.6626,1.6626,0,1.6717,1.6718,1.6724,1.6715,1.6713,1.6718,1.6702,1.6702,1.6691,1.6681,1.6686,1.6675,1.667,1.6671,1.666,1.6677,1.6672,1.6659,1.6641,1.6668,1.6678,1.6681,1.6629,1.6628,1.6628,1.6627,0,0,1.6761,1.6744,1.6747,1.6743,1.6731,1.6731,1.6736,1.6732,1.6733,1.6727,1.673,1.6729,1.6717,1.6714,1.6702,1.6708,1.6732,1.6694,1.6693,1.6702,1.6752,1.6762,1.6767,1.6723,1.6724,1.6724,1.6753,0,1.6787,1.6794,1.678,1.679,1.6791,1.6772,1.6776,1.6769,1.6761,1.6761,1.6751,1.6751,1.6735,1.6733,1.6738,1.6728,1.6742,1.6726,1.6727,1.6727,1.673,1.6772,1.6782,1.681,1.6757,1.6757,1.6758,0,1.6818,1.6814,1.6825,1.6814,1.6814,1.6818,1.6814,1.6814,1.6807,1.68,1.6797,1.6784,1.6788,1.6771,1.6778,1.6767,1.6767,1.6763,1.6763,1.6763,1.6744,1.6773,1.6818,1.6823,1.6763,1.6763,1.6762,0,1.685,1.6848,1.6854,1.6852,1.6839,1.6842,1.6837,1.6829,1.6828,1.6825,1.6824,1.6821,1.682,1.6818,1.6805,1.6794,1.6813,1.6795,1.6809,1.6809,1.6813,1.6813,1.686,1.6813,1.6813,1.6813,1.6813,0,1.688,1.6888,1.6869,1.6873,1.6882,1.6865,1.6874,1.6867,1.6861,1.6863,1.6846,1.685,1.6831,1.6833,1.6822,1.683,1.6829,1.6825,1.6822,1.6826,1.6827,1.6826,1.6823,1.6814,1.6814,1.6813,1.6813,0,1.6917,1.6905,1.6911,1.6899,1.6896,1.6903,1.6893,1.6897,1.6888,1.6892,1.6892,1.6878,1.6879,1.6865,1.6863,1.6856,1.6869,1.6862,1.6872,1.687,1.6884,1.6883,1.6932,1.6938,1.6887,1.6887,1.6888,0,1.6938,1.6943,1.6932,1.6933,1.6929,1.6931,1.693,1.6915,1.6915,1.6909,1.6913,1.6913,1.6912,1.6915,1.6904,1.6903,1.6897,1.6914,1.6897,1.6902,1.6898,1.6898,1.6899,1.6918,1.6918,1.6919,1.6919,0,1.6975,1.6969,1.6969,1.6967,1.6967,1.6965,1.6962,1.6963,1.6947,1.6948,1.6949,1.6949,1.6948,1.6948,1.6945,1.694,1.6928,1.6925,1.6928,1.6933,1.6938,1.6936,1.6882,1.6924,1.6923,1.6923,1.6923,1.6923,1.7005,1.701,1.7003,1.7004,1.7,1.6998,1.7001,1.6993,1.6994,1.6992,1.6984,1.6987,1.6981,1.6976,1.6973,1.6975,1.6967,1.6971,1.6972,1.6974,1.6977,1.6938,1.6975,1.6975,1.6974,1.6974,1.6974,0,1.7042,1.7038,1.7039,1.7035,1.7036,1.7025,1.7021,1.7023,1.7026,1.7021,1.7021,1.7024,1.7024,1.7015,1.7015,1.7019,1.7013,1.7019,1.7019,1.7018,1.6984,1.6982,1.7024,1.7024,1.7024,1.7024,1.7024,1.7024,1.7062,1.707,1.7063,1.707,1.7065,1.7068,1.7067,1.7065,1.7062,1.7066,1.7066,1.7061,1.7055,1.7054,1.7055,1.7052,1.7053,1.7061,1.7057,1.7025,1.702,1.7016,1.7013,1.7062,1.7062,1.7091,1.7091,1.7091]},{"header":{"parameterUnit":"m.s-1","parameterCategory":1,"la1":30.2991,"la2":30.254,"lo1":-89.0895,"lo2":-89.0444,"dy":0.0017,"dx":0.0017,"nx":28,"ny":28,"refTime":"2025-07-29T21:00:00:Z","depth":0,"parameterNumber":3,"parameterNumberName":"V-component_of_WINDS"},"data":[0,0,0,0,0,0,0,0,0,0,0,0,0,0,0,0,0,0,0,0,0,0,0,0,0,0,0,0,0,0,0,0,0,0,0,0,0,0,0,0,0,0,0,0,0,0,0,0,0,0,0,0,0,0,0,0,0,0,-2.6872,-2.6873,0,-2.696,-2.6961,-2.6962,-2.6999,-2.6999,-2.6998,-2.6998,-2.7086,-2.7089,-2.7091,0,0,0,0,0,0,0,0,0,0,0,0,0,-2.6734,-2.6737,-2.6872,-2.6873,-2.6874,-2.696,-2.6961,-2.6963,-2.6999,-2.6999,-2.6998,-2.6998,-2.7085,-2.7088,-2.7091,0,0,0,0,0,0,0,0,0,0,0,0,0,-2.6805,-2.6737,-2.6872,-2.6903,-2.6906,-2.696,-2.6961,-2.6963,-2.6999,-2.6999,-2.6998,-2.6998,-2.7084,-2.7088,-2.7092,-2.712,0,0,-2.7103,-2.7105,0,0,0,0,0,0,0,0,-2.6801,-2.681,-2.6897,-2.6901,-2.6905,-2.6968,-2.6945,-2.7016,-2.6999,-2.6964,-2.6998,-2.6998,-2.7047,-2.7054,-2.7071,-2.7125,-2.7128,-2.7104,-2.7106,-2.7108,-2.7109,0,0,0,0,0,0,0,-2.6796,-2.6807,-2.6907,-2.6898,-2.6903,-2.6912,-2.6922,-2.6959,-2.7006,-2.6967,-2.697,-2.698,-2.7049,-2.7067,-2.7073,-2.713,-2.7103,-2.7107,-2.7109,-2.7111,-2.7215,-2.7215,0,0,0,0,0,0,-2.6786,-2.6802,-2.6904,-2.6909,-2.6851,-2.6915,-2.6926,-2.6948,-2.7005,-2.7014,-2.698,-2.6981,-2.7061,-2.7069,-2.7076,-2.7116,-2.7107,-2.7111,-2.7113,-2.7214,-2.7215,-2.7216,0,0,0,0,0,0,-2.6783,-2.6795,-2.69,-2.6857,-2.6871,-2.6917,-2.6942,-2.695,-2.6968,-2.7015,-2.7024,-2.699,-2.7061,-2.7071,-2.711,-2.712,-2.7113,-2.7116,-2.7214,-2.7215,-2.7215,-2.7195,0,0,0,0,0,0,-2.6779,-2.6794,-2.6805,-2.6857,-2.6873,-2.6933,-2.6943,-2.6952,-2.6975,-2.6977,-2.7027,-2.7035,-2.7062,-2.7104,-2.7114,-2.7125,-2.7119,-2.7213,-2.7214,-2.7215,-2.7195,-2.7195,-2.7195,0,0,0,0,0,-2.6774,-2.6794,-2.6805,-2.6817,-2.6888,-2.6933,-2.6942,-2.6973,-2.6975,-2.6988,-2.7018,-2.7033,-2.7117,-2.7108,-2.7119,-2.7131,-2.7213,-2.7214,-2.7215,-2.7195,-2.7195,-2.7195,0,0,0,0,0,0,-2.674,-2.6801,-2.6814,-2.6852,-2.6887,-2.6939,-2.6955,-2.6972,-2.7006,-2.7007,-2.7044,-2.7055,-2.7091,-2.7115,-2.7104,-2.7164,-2.7166,-2.717,-2.7147,-2.7147,-2.7147,-2.7141,-2.7122,0,0,0,0,0,-2.6737,-2.6769,-2.6821,-2.6849,-2.6866,-2.6907,-2.6928,-2.695,-2.6987,-2.7002,-2.7035,-2.7071,-2.7106,-2.7128,-2.7162,-2.7198,-2.7211,-2.7212,-2.7212,-2.7212,-2.7215,-2.7239,-2.7241,-2.7219,-2.7219,-2.7219,0,0,-2.6731,-2.6769,-2.6786,-2.6843,-2.6873,-2.6906,-2.692,-2.6952,-2.6977,-2.7007,-2.7047,-2.7073,-2.7115,-2.7154,-2.7172,-2.7175,-2.7224,-2.7214,-2.7213,-2.7216,-2.724,-2.7242,-2.7244,-2.722,-2.722,-2.722,0,0,-2.6737,-2.6768,-2.6796,-2.6827,-2.6873,-2.6901,-2.6908,-2.6958,-2.6977,-2.7018,-2.7042,-2.7072,-2.713,-2.716,-2.7183,-2.7204,-2.722,-2.7214,-2.7214,-2.7237,-2.7239,-2.7241,-2.7251,-2.7253,-2.7217,-2.7217,-2.7217,0,-2.6723,-2.6774,-2.6808,-2.6842,-2.6867,-2.6897,-2.6927,-2.6954,-2.7008,-2.7025,-2.7027,-2.7104,-2.7134,-2.7182,-2.7188,-2.7204,-2.7215,-2.7209,-2.7236,-2.7238,-2.724,-2.725,-2.7253,-2.7216,-2.7216,-2.7216,-2.7216,0,-2.6756,-2.6791,-2.6808,-2.6863,-2.689,-2.692,-2.696,-2.6984,-2.7004,-2.7032,-2.7074,-2.7112,-2.7156,-2.7169,-2.7187,-2.722,-2.7221,-2.7229,-2.7232,-2.7241,-2.7251,-2.7255,-2.7215,-2.7215,-2.7215,-2.7215,0,0,-2.6741,-2.6817,-2.6823,-2.6849,-2.6904,-2.6931,-2.6965,-2.701,-2.703,-2.7067,-2.7097,-2.7147,-2.7157,-2.7183,-2.7205,-2.7225,-2.7243,-2.7231,-2.7233,-2.7234,-2.7285,-2.7279,-2.7283,-2.7254,-2.7255,-2.7255,-2.7282,0,-2.6756,-2.6818,-2.6851,-2.6899,-2.6933,-2.6964,-2.6994,-2.7031,-2.7058,-2.7091,-2.7122,-2.7158,-2.7166,-2.7182,-2.7204,-2.7236,-2.7254,-2.7235,-2.7283,-2.7284,-2.7273,-2.7288,-2.7281,-2.7305,-2.7286,-2.7286,-2.7287,0,-2.678,-2.682,-2.6872,-2.6926,-2.6941,-2.6967,-2.7013,-2.7044,-2.7087,-2.7106,-2.7137,-2.716,-2.7198,-2.7198,-2.7251,-2.7238,-2.726,-2.7279,-2.7281,-2.7287,-2.7287,-2.7296,-2.7312,-2.7316,-2.7293,-2.7292,-2.7292,0,-2.6767,-2.6833,-2.6873,-2.6895,-2.6958,-2.6976,-2.7003,-2.7047,-2.7073,-2.7112,-2.713,-2.7173,-2.7196,-2.7229,-2.7264,-2.7261,-2.7315,-2.7317,-2.7333,-2.7332,-2.7343,-2.7342,-2.7364,-2.7354,-2.7354,-2.7354,-2.7354,0,-2.678,-2.6811,-2.6869,-2.6894,-2.693,-2.6969,-2.7004,-2.7034,-2.7073,-2.7105,-2.7133,-2.7162,-2.7206,-2.7241,-2.7268,-2.7309,-2.7319,-2.7336,-2.7343,-2.7335,-2.7333,-2.735,-2.735,-2.7355,-2.7355,-2.7355,-2.7355,0,-2.6771,-2.681,-2.6857,-2.6915,-2.693,-2.6955,-2.7004,-2.703,-2.7061,-2.7101,-2.7113,-2.716,-2.7203,-2.7241,-2.7297,-2.7316,-2.7359,-2.7367,-2.7345,-2.7349,-2.7363,-2.7362,-2.7398,-2.7406,-2.7389,-2.7389,-2.7389,0,-2.6777,-2.6802,-2.6864,-2.6888,-2.6916,-2.6954,-2.6981,-2.7021,-2.7049,-2.7103,-2.7123,-2.7168,-2.7207,-2.7275,-2.7314,-2.7358,-2.7368,-2.7378,-2.7375,-2.7366,-2.7371,-2.737,-2.7373,-2.7378,-2.7378,-2.7378,-2.7378,0,-2.6785,-2.6804,-2.6843,-2.6891,-2.6924,-2.6962,-2.7001,-2.702,-2.7067,-2.7097,-2.7143,-2.7173,-2.7233,-2.7278,-2.7327,-2.7355,-2.7375,-2.7379,-2.7385,-2.7377,-2.7364,-2.7374,-2.7346,-2.7378,-2.7378,-2.7378,-2.7378,-2.7378,-2.6785,-2.681,-2.6858,-2.6902,-2.6937,-2.6974,-2.7002,-2.7038,-2.7077,-2.713,-2.7151,-2.7198,-2.7244,-2.7312,-2.7341,-2.7379,-2.7382,-2.739,-2.7393,-2.7394,-2.7394,-2.7358,-2.7387,-2.7387,-2.7387,-2.7387,-2.7387,0,-2.6795,-2.6829,-2.6869,-2.6925,-2.696,-2.6978,-2.7023,-2.7051,-2.7093,-2.7135,-2.7173,-2.7227,-2.7273,-2.7317,-2.7365,-2.7387,-2.7398,-2.7398,-2.7398,-2.7405,-2.7387,-2.7378,-2.7389,-2.7389,-2.7389,-2.7389,-2.7389,-2.7389,-2.6805,-2.685,-2.6876,-2.6939,-2.6972,-2.702,-2.7045,-2.708,-2.7114,-2.7174,-2.7212,-2.7242,-2.7285,-2.7337,-2.738,-2.7392,-2.7409,-2.7408,-2.7423,-2.7406,-2.7405,-2.7405,-2.7396,-2.7411,-2.7411,-2.7437,-2.7437,-2.7437]}]]